Location: Arrington
(35.8681°N, 86.7092°W)
Time: 21:51:25
(UTC+00:00)

Aurora 2 Rocket - Pass Details

Date: 23 November 2019
Orbit: 390 x 1747 km, 25.0° (Epoch: 08 December)

Event Time Altitude Azimuth Distance (km) Brightness Sun altitude
Rises 23:58:31 0° 233° (SW) 2,307 6.7 -16.7°
Reaches altitude 10° 00:01:08 10° 207° (SSW) 1,540 5.1 -17.2°
Maximum altitude 00:03:11 15° 170° (S) 1,363 4.3 -17.6°
Enters shadow 00:04:35 13° 145° (SE) 1,554 4.4 -17.9°
